Home > Weather > Albany > Past weeks

Flag for Australia Past Weather in Albany, Western Australia, Australia — Yesterday and Last 2 Weeks

Now
51 °F

Cool.


Feels Like: 48 °F
Forecast: 52 / 58 °F
Wind: 10 mph from Northwest

Location: Albany Airport

Current Time: Jun 25, 2016 at 6:20:35 AM

Latest Report: Jun 25, 2016 at 5:00 AM


Visibility: N/A

Pressure: 29.92 "Hg

Humidity: 94%

Dew Point: 50 °F

Location of AlbanyLocation

Past Weather in Albany — Graph

°F

Albany Temperature Yesterday

Maximum temperature yesterday: 60 °F (at 2:00 PM)
Minimum temperature yesterday: 40 °F (at 6:00 AM)
Average temperature yesterday: 50 °F

High & Low Weather Summary for the Past Weeks

 TemperatureHumidityPressure
High65 °F (Jun 12, 2:00 PM)100% (Jun 15, 5:00 AM)30.40 "Hg (Jun 15, 5:00 AM)
Low37 °F (Jun 18, 6:00 AM)48% (Jun 12, 2:00 PM)29.66 "Hg (Jun 19, 2:00 PM)
Average53 °F84%30.06 "Hg
* Reported Jun 10 5:00 AM — Jun 25 5:00 AM, Albany, Weather by CustomWeather, © 2016

Note: Actual official high and low records may vary slightly from our data, if they occured in-between our weather recording intervals... More about our weather records

Advertising

Albany Weather History for the Previous 24 Hours

Scroll right to see more
 ConditionsComfort  
Time TempWeatherWind HumidityBarometerVisibility
5:00 AM
Sat, Jun 25
51 °FCool.10 mph94%29.92 "HgN/A
3:00 AM51 °FPassing clouds.13 mph86%29.91 "HgN/A
2:00 AM51 °FCool.13 mph86%29.93 "HgN/A
12:00 AM50 °FCool.12 mph82%29.95 "HgN/A
11:00 PM
Fri, Jun 24
50 °FCool.14 mph79%29.95 "HgN/A
9:00 PM51 °FCool.10 mph77%29.98 "HgN/A
8:00 PM50 °FCool.8 mph84%29.98 "HgN/A
6:00 PM53 °FPassing clouds.8 mph75%29.98 "HgN/A
5:00 PM56 °FCool.8 mph70%29.97 "HgN/A
3:00 PM58 °FPartly sunny.10 mph60%29.98 "HgN/A
2:00 PM60 °FRefreshingly cool.13 mph51%29.98 "HgN/A
12:00 PM58 °FPartly sunny.13 mph57%30.05 "HgN/A
11:00 AM54 °FCool.12 mph65%30.08 "HgN/A
9:00 AM48 °FOvercast.8 mph79%30.11 "HgN/A
8:00 AM41 °FQuite cool.6 mph92%30.10 "HgN/A
6:00 AM40 °FQuite cool.5 mph89%30.11 "HgN/A
Weather by CustomWeather, © 2016

See weather overviewHow to use our weather pages